Weather History for Bratislava Ivanka, Slovakia

Change the Weather History Date:

Thursday, August 8, 2013

  Actual Average Record
Temperature  
Mean Temperature 85 °F -  
Max Temperature 102 °F 74 °F - ()
Min Temperature 68 °F 56 °F - ()
Cooling Degree Days 20    
Growing Degree Days 35 (Base 50)    
Moisture  
Dew Point 58 °F    
Average Humidity 41    
Maximum Humidity 73    
Minimum Humidity 11    
Precipitation  
Precipitation 0.00 in - - ()
Sea Level Pressure  
Sea Level Pressure 29.91 in    
Wind  
Wind Speed 6 mph ()    
Max Wind Speed 13 mph    
Max Gust Speed -    
Visibility 15.0 miles    
Events      
T = Trace of Precipitation, MM = Missing Value Source: Averaged Metar Reports

Daily Weather History Graph

Daily Weather History Graph

Search for Another Location

Airport:

Trip Planner

Search our weather history database for the weather conditions in past years. The results will help you decide how hot, cold, wet, or windy it might be!

Date:

Astronomy

Aug. 08, 2013 Rise Set
Actual Time 5:36 AM CEST 8:16 PM CEST
Civil Twilight 5:00 AM CEST 8:51 PM CEST
Nautical Twilight 4:15 AM CEST 9:36 PM CEST
Astronomical Twilight 3:22 AM CEST 10:29 PM CEST
Moon 7:17 AM CEST (8/8) 8:31 PM CEST (8/8)
Length of Visible Light 15h 51m
Length of Day
14h 40m
New Moon, 2% of the Moon is Illuminated
Aug 8
New Moon
Aug 14
First Quarter
Aug 21
Full
Aug 28
Last Quarter
Sep 5
New

Hourly Weather History & Observations

Time (CEST) Temp. Heat Index Dew Point Humidity Pressure Visibility Wind Dir Wind Speed Gust Speed Precip Events Conditions
12:00 AM 75.2 °F - 60.8 °F 61% 29.92 in - NE 3.5 mph - N/A   Clear
12:30 AM 75.2 °F - 60.8 °F 61% 29.92 in - NNE 3.5 mph - N/A   Clear
1:00 AM 74 °F - 62 °F 57% 29.92 in 12 mi NNE 4.5 mph - -   Clear
1:00 AM 73.4 °F - 60.8 °F 65% 29.92 in - NE 5.8 mph - N/A   Clear
1:30 AM 73.4 °F - 60.8 °F 65% 29.92 in - NE 6.9 mph - N/A   Clear
2:00 AM 73 °F - 60 °F 55% 29.93 in 12 mi NE 6.7 mph - -   Clear
2:00 AM 73.4 °F - 60.8 °F 65% 29.92 in - NE 6.9 mph - N/A   Clear
2:30 AM 71.6 °F - 60.8 °F 69% 29.92 in - NE 5.8 mph - N/A   Clear
3:00 AM 71.6 °F - 60.8 °F 69% 29.92 in - NNE 3.5 mph - N/A   Clear
3:30 AM 71.6 °F - 60.8 °F 69% 29.92 in - ENE 4.6 mph - N/A   Clear
4:00 AM 71 °F - 60 °F 59% 29.93 in 12 mi NE 4.5 mph - -   Clear
4:00 AM 71.6 °F - 59.0 °F 64% 29.92 in - NE 4.6 mph - N/A   Clear
4:30 AM 69.8 °F - 59.0 °F 68% 29.92 in - NE 8.1 mph - N/A   Clear
5:00 AM 69 °F - 59 °F 63% 29.93 in 12 mi NE 6.7 mph - -   Scattered Clouds
5:00 AM 68.0 °F - 59.0 °F 73% 29.92 in - NE 5.8 mph - N/A   Clear
5:30 AM 68.0 °F - 59.0 °F 73% 29.95 in - NE 6.9 mph - N/A   Clear
6:00 AM 68 °F - 59 °F 64% 29.94 in 16 mi NE 6.7 mph - -   Scattered Clouds
6:00 AM 68.0 °F - 59.0 °F 73% 29.92 in - NE 5.8 mph - N/A   Clear
6:30 AM 69.8 °F - 59.0 °F 68% 29.95 in - NE 8.1 mph - N/A   Clear
7:00 AM 73 °F - 59 °F 52% 29.94 in 19 mi NE 6.7 mph - -   Scattered Clouds
7:00 AM 73.4 °F - 59.0 °F 61% 29.95 in - NE 5.8 mph - N/A   Clear
7:30 AM 75.2 °F - 59.0 °F 57% 29.95 in - NE 6.9 mph - N/A   Clear
8:00 AM 78 °F - 59 °F 42% 29.94 in 19 mi NE 8.9 mph - -   Clear
8:00 AM 78.8 °F - 59.0 °F 51% 29.95 in - NE 8.1 mph - N/A   Clear
8:30 AM 80.6 °F 81.1 °F 59.0 °F 48% 29.95 in - East 6.9 mph - N/A   Clear
9:00 AM 82 °F - 58 °F 34% 29.93 in 19 mi East 6.7 mph - -   Clear
9:00 AM 82.4 °F 82.5 °F 59.0 °F 45% 29.95 in - East 6.9 mph - N/A   Clear
9:30 AM 86.0 °F 85.4 °F 59.0 °F 40% 29.95 in - ESE 5.8 mph - N/A   Clear
10:00 AM 86.0 °F 84.9 °F 57.2 °F 37% 29.95 in - SSE 8.1 mph - N/A   Clear
10:30 AM 87.8 °F 86.5 °F 57.2 °F 35% 29.95 in - South 8.1 mph - N/A   Clear
11:00 AM 90 °F - 58 °F 25% 29.94 in 16 mi SSE 8.9 mph - -   Clear
11:00 AM 89.6 °F 88.9 °F 59.0 °F 36% 29.95 in - SSE 8.1 mph - N/A   Clear
11:30 AM 93.2 °F 92.6 °F 59.0 °F 32% 29.95 in - South 9.2 mph - N/A   Clear
12:00 PM 92 °F - 58 °F 22% 29.93 in 16 mi South 8.9 mph - -   Clear
12:00 PM 93.2 °F 91.9 °F 57.2 °F 30% 29.95 in - South 8.1 mph - N/A   Clear
12:30 PM 93.2 °F 93.3 °F 60.8 °F 34% 29.95 in - SSE 8.1 mph - N/A   Clear
1:00 PM 96 °F - 58 °F 19% 29.91 in 16 mi SSE 11.2 mph - -   Clear
1:00 PM 96.8 °F 96.2 °F 59.0 °F 28% 29.92 in - SSE 11.5 mph - N/A   Clear
1:30 PM 98.6 °F 98.5 °F 59.0 °F 27% 29.92 in - SSE 11.5 mph - N/A   Clear
2:00 PM 98 °F - 59 °F 19% 29.89 in 16 mi SSE 11.2 mph - -   Clear
2:00 PM 98.6 °F 98.5 °F 59.0 °F 27% 29.92 in - SSE 10.4 mph - N/A   Clear
2:30 PM 100.4 °F 99.7 °F 57.2 °F 24% 29.92 in - South 10.4 mph - N/A   Clear
3:00 PM 99 °F - 55 °F 14% 29.88 in 16 mi SSE 11.2 mph - -   Clear
3:00 PM 98.6 °F 97.2 °F 55.4 °F 24% 29.89 in - South 11.5 mph - N/A   Clear
3:30 PM 102.2 °F 100.9 °F 55.4 °F 21% 29.89 in - South 11.5 mph - N/A   Clear
4:00 PM 102 °F - 54 °F 12% 29.87 in 16 mi South 11.2 mph - -   Clear
4:00 PM 102.2 °F 100.4 °F 53.6 °F 20% 29.89 in - South 10.4 mph - N/A   Clear
4:30 PM 102.2 °F - 51.8 °F 18% 29.89 in - South 10.4 mph - N/A   Clear
5:00 PM 102 °F - 52 °F 11% 29.86 in 16 mi SSE 13.4 mph - -   Clear
5:00 PM 102.2 °F - 51.8 °F 18% 29.89 in - SSE 12.7 mph - N/A   Clear
5:30 PM 100.4 °F - 50.0 °F 18% 29.89 in - South 10.4 mph - N/A   Clear
6:00 PM 100 °F - 51 °F 11% 29.86 in 16 mi SSE 11.2 mph - -   Clear
6:00 PM 100.4 °F - 50.0 °F 18% 29.89 in - South 11.5 mph - N/A   Clear
6:30 PM 98.6 °F - 51.8 °F 21% 29.89 in - SSE 9.2 mph - N/A   Clear
7:00 PM 98 °F - 54 °F 14% 29.85 in 16 mi South 6.7 mph - -   Scattered Clouds
7:00 PM 96.8 °F 94.4 °F 53.6 °F 23% 29.86 in - South 6.9 mph - N/A   Clear
7:30 PM 95.0 °F 93.0 °F 55.4 °F 26% 29.89 in - South 5.8 mph - N/A   Clear
8:00 PM 92 °F - 56 °F 20% 29.86 in 12 mi South 4.5 mph - -   Scattered Clouds
8:00 PM 91.4 °F 89.4 °F 55.4 °F 29% 29.89 in - South 5.8 mph - N/A   Clear
8:30 PM 89.6 °F 87.3 °F 53.6 °F 29% 29.89 in - South 5.8 mph - N/A   Clear
9:00 PM 86.0 °F 84.9 °F 57.2 °F 37% 29.89 in - ESE 4.6 mph - N/A   Clear
9:30 PM 84.2 °F 83.8 °F 59.0 °F 42% 29.89 in - ESE 5.8 mph - N/A   Clear
10:00 PM 85 °F - 60 °F 33% 29.89 in 12 mi 2.2 mph - -  
10:00 PM 84.2 °F 84.4 °F 60.8 °F 45% 29.89 in - Variable 2.3 mph - N/A   Clear
10:30 PM 84.2 °F 84.4 °F 60.8 °F 45% 29.92 in - Variable 1.2 mph - N/A   Clear
11:00 PM 81 °F - 60 °F 39% 29.91 in 12 mi Calm Calm - -  
11:00 PM 80.6 °F 81.5 °F 60.8 °F 51% 29.92 in - Calm Calm - N/A   Clear
11:30 PM 80.6 °F 81.5 °F 60.8 °F 51% 29.92 in - North 3.5 mph - N/A   Clear